, AK

(GMT )
Valdez Airport

Weather History for PAVD - December, 2013

Change the Weather History Date:

Wednesday, December 11, 2013

  Actual Average Record
Temperature  
Mean Temperature 28 °F -  
Max Temperature 32 °F 26 °F 39 °F (2002)
Min Temperature 23 °F 18 °F -10 °F (1966)
Degree Days  
Heating Degree Days 38    
Moisture  
Dew Point 8 °F    
Average Humidity 45    
Maximum Humidity 60    
Minimum Humidity 37    
Precipitation  
Precipitation 0.00 in - - ()
Sea Level Pressure  
Sea Level Pressure 29.48 in    
Wind  
Wind Speed 4 mph (East)    
Max Wind Speed 18 mph    
Max Gust Speed 29 mph    
Visibility 10 miles    
Events      
Averages and records for this station are not official NWS values.
T = Trace of Precipitation, MM = Missing Value Source: NWS Daily Summary

Daily Weather History Graph

Daily Weather History Graph

Search for Another Location

Airport or City:

Trip Planner

Search our weather history database for the weather conditions in past years. The results will help you decide how hot, cold, wet, or windy it might be!

Date:

Astronomy

Dec. 11, 2013 Rise Set
Actual Time 9:49 AM AKST 3:27 PM AKST
Civil Twilight 8:48 AM AKST 4:28 PM AKST
Nautical Twilight 7:49 AM AKST 5:27 PM AKST
Astronomical Twilight 6:55 AM AKST 6:20 PM AKST
Moon 1:23 PM AKST (12/11) 2:56 AM AKST (12/11)
Length of Visible Light 7h 40m
Length of Day
5h 38m
Waxing Gibbous, 73% of the Moon is Illuminated
Dec 11
Waxing Gibbous
Dec 17
Full
Dec 25
Last Quarter
Jan 1
New
Jan 7
First Quarter

Hourly Weather History & Observations

Time (AKST) Temp. Windchill Dew Point Humidity Pressure Visibility Wind Dir Wind Speed Gust Speed Precip Events Conditions
12:16 AM 30.2 °F 24.3 °F 15.8 °F 55% 29.73 in 10.0 mi SE 5.8 mph - N/A   Clear
12:36 AM 32.0 °F 24.8 °F 15.8 °F 51% 29.73 in 10.0 mi WNW 8.1 mph - N/A   Clear
12:56 AM 30.2 °F - 17.6 °F 60% 29.72 in 10.0 mi Calm Calm - N/A   Clear
1:16 AM 30.2 °F - 15.8 °F 55% 29.71 in 10.0 mi Calm Calm - N/A   Clear
1:36 AM 30.2 °F 24.3 °F 15.8 °F 55% 29.70 in 10.0 mi NE 5.8 mph - N/A   Clear
1:56 AM 32.0 °F - 14.0 °F 48% 29.69 in 10.0 mi Calm Calm - N/A   Clear
2:16 AM 28.4 °F 24.6 °F 15.8 °F 59% 29.68 in 10.0 mi East 3.5 mph - N/A   Clear
2:36 AM 30.2 °F 25.4 °F 12.2 °F 47% 29.66 in 10.0 mi WNW 4.6 mph - N/A   Clear
2:56 AM 28.4 °F - 12.2 °F 51% 29.64 in 10.0 mi Calm Calm - N/A   Clear
3:16 AM 30.2 °F - 12.2 °F 47% 29.63 in 10.0 mi Calm Calm - N/A   Clear
3:36 AM 30.2 °F - 12.2 °F 47% 29.62 in 10.0 mi Calm Calm - N/A   Clear
3:56 AM 28.4 °F - 14.0 °F 55% 29.61 in 10.0 mi Calm Calm - N/A   Clear
4:16 AM 26.6 °F 19.1 °F 12.2 °F 55% 29.59 in 10.0 mi NNE 6.9 mph - N/A   Clear
4:36 AM 30.2 °F - 12.2 °F 47% 29.59 in 10.0 mi Calm Calm - N/A   Clear
4:56 AM 30.2 °F - 12.2 °F 47% 29.58 in 10.0 mi Calm Calm - N/A   Clear
5:16 AM 28.4 °F 21.2 °F 12.2 °F 51% 29.57 in 10.0 mi ESE 6.9 mph - N/A   Clear
5:36 AM 28.4 °F 24.6 °F 10.4 °F 47% 29.56 in 10.0 mi West 3.5 mph - N/A   Clear
5:56 AM 28.4 °F 23.3 °F 10.4 °F 47% 29.54 in 10.0 mi ESE 4.6 mph - N/A   Clear
6:16 AM 28.4 °F 22.2 °F 12.2 °F 51% 29.54 in 10.0 mi East 5.8 mph - N/A   Clear
6:36 AM 28.4 °F - 8.6 °F 43% 29.52 in 10.0 mi Calm Calm - N/A   Clear
6:56 AM 28.4 °F - 10.4 °F 47% 29.51 in 10.0 mi Calm Calm - N/A   Clear
7:16 AM 28.4 °F 22.2 °F 10.4 °F 47% 29.50 in 10.0 mi East 5.8 mph - N/A   Clear
7:36 AM 26.6 °F - 8.6 °F 47% 29.50 in 10.0 mi Calm Calm - N/A   Clear
7:56 AM 28.4 °F - 8.6 °F 43% 29.49 in 10.0 mi Calm Calm - N/A   Partly Cloudy
8:16 AM 28.4 °F - 8.6 °F 43% 29.49 in 10.0 mi Calm Calm - N/A   Partly Cloudy
8:36 AM 28.4 °F 22.2 °F 10.4 °F 47% 29.49 in 10.0 mi SSE 5.8 mph - N/A   Partly Cloudy
8:56 AM 28.4 °F 23.3 °F 8.6 °F 43% 29.47 in 10.0 mi West 4.6 mph - N/A   Partly Cloudy
9:16 AM 30.2 °F - 8.6 °F 40% 29.47 in 10.0 mi Calm Calm - N/A   Partly Cloudy
9:36 AM 30.2 °F 25.4 °F 8.6 °F 40% 29.47 in 10.0 mi NW 4.6 mph 20.7 mph N/A   Partly Cloudy
9:56 AM 30.2 °F 21.9 °F 8.6 °F 40% 29.46 in 10.0 mi ENE 9.2 mph 28.8 mph N/A   Clear
10:16 AM 28.4 °F - 6.8 °F 40% 29.46 in 10.0 mi Calm Calm - N/A   Clear
10:36 AM 28.4 °F 15.8 °F 6.8 °F 40% 29.46 in 10.0 mi East 18.4 mph 28.8 mph N/A   Clear
10:56 AM 28.4 °F 19.1 °F 8.6 °F 43% 29.46 in 10.0 mi NE 10.4 mph 21.9 mph N/A   Clear
11:16 AM 30.2 °F 23.4 °F 6.8 °F 37% 29.45 in 10.0 mi ESE 6.9 mph 20.7 mph N/A   Clear
11:36 AM 30.2 °F 23.4 °F 6.8 °F 37% 29.44 in 10.0 mi SE 6.9 mph - N/A   Clear
11:56 AM 28.4 °F 21.2 °F 6.8 °F 40% 29.44 in 10.0 mi ENE 6.9 mph - N/A   Clear
12:16 PM 30.2 °F 26.7 °F 6.8 °F 37% 29.44 in 10.0 mi SSW 3.5 mph 21.9 mph N/A   Clear
12:36 PM 30.2 °F - 8.6 °F 40% 29.43 in 10.0 mi Calm Calm - N/A   Clear
12:56 PM 28.4 °F 24.6 °F 6.8 °F 40% 29.43 in 10.0 mi South 3.5 mph - N/A   Clear
1:16 PM 28.4 °F 23.3 °F 6.8 °F 40% 29.43 in 10.0 mi WNW 4.6 mph - N/A   Clear
1:36 PM 28.4 °F - 6.8 °F 40% 29.42 in 10.0 mi Calm Calm - N/A   Clear
1:56 PM 28.4 °F 24.6 °F 6.8 °F 40% 29.42 in 10.0 mi WSW 3.5 mph - N/A   Partly Cloudy
2:16 PM 26.6 °F - 6.8 °F 43% 29.42 in 10.0 mi Calm Calm - N/A   Partly Cloudy
2:36 PM 26.6 °F 20.0 °F 5.0 °F 40% 29.42 in 10.0 mi West 5.8 mph - N/A   Partly Cloudy
2:56 PM 26.6 °F 21.2 °F 6.8 °F 43% 29.41 in 10.0 mi WSW 4.6 mph - N/A   Scattered Clouds
3:16 PM 26.6 °F 22.6 °F 5.0 °F 40% 29.41 in 10.0 mi West 3.5 mph - N/A   Scattered Clouds
3:36 PM 26.6 °F 20.0 °F 6.8 °F 43% 29.41 in 10.0 mi SSE 5.8 mph - N/A   Scattered Clouds
3:56 PM 26.6 °F 20.0 °F 6.8 °F 43% 29.41 in 10.0 mi SW 5.8 mph - N/A   Mostly Cloudy
4:16 PM 26.6 °F 22.6 °F 5.0 °F 40% 29.41 in 10.0 mi East 3.5 mph - N/A   Mostly Cloudy
4:36 PM 24.8 °F - 3.2 °F 40% 29.40 in 10.0 mi Calm Calm - N/A   Mostly Cloudy
4:56 PM 26.6 °F - 6.8 °F 43% 29.39 in 10.0 mi Calm Calm - N/A   Mostly Cloudy
5:16 PM 24.8 °F - 6.8 °F 46% 29.39 in 10.0 mi Calm Calm - N/A   Mostly Cloudy
5:36 PM 26.6 °F - 6.8 °F 43% 29.38 in 10.0 mi Calm Calm - N/A   Mostly Cloudy
5:56 PM 26.6 °F 21.2 °F 6.8 °F 43% 29.38 in 10.0 mi South 4.6 mph - N/A   Mostly Cloudy
6:16 PM 26.6 °F - 5.0 °F 40% 29.38 in 10.0 mi Calm Calm - N/A   Mostly Cloudy
6:36 PM 26.6 °F 18.2 °F 5.0 °F 40% 29.38 in 10.0 mi ESE 8.1 mph 16.1 mph N/A   Mostly Cloudy
6:56 PM 24.8 °F 20.5 °F 6.8 °F 46% 29.38 in 10.0 mi East 3.5 mph - N/A   Mostly Cloudy
7:16 PM 26.6 °F 16.2 °F 6.8 °F 43% 29.38 in 10.0 mi ENE 11.5 mph - N/A   Mostly Cloudy
7:36 PM 26.6 °F - 5.0 °F 40% 29.38 in 10.0 mi Calm Calm - N/A   Mostly Cloudy
7:56 PM 26.6 °F - 8.6 °F 47% 29.38 in 10.0 mi Calm Calm - N/A   Mostly Cloudy
8:16 PM 24.8 °F 19.1 °F 3.2 °F 40% 29.38 in 10.0 mi North 4.6 mph - N/A   Mostly Cloudy
8:36 PM 24.8 °F 17.9 °F 3.2 °F 40% 29.38 in 10.0 mi ENE 5.8 mph - N/A   Mostly Cloudy
8:56 PM 24.8 °F 16.9 °F 6.8 °F 46% 29.38 in 10.0 mi WSW 6.9 mph - N/A   Mostly Cloudy
9:16 PM 24.8 °F - 3.2 °F 40% 29.37 in 10.0 mi Calm Calm - N/A   Mostly Cloudy
9:36 PM 24.8 °F 17.9 °F 6.8 °F 46% 29.37 in 10.0 mi NE 5.8 mph - N/A   Mostly Cloudy
9:56 PM 24.8 °F 20.5 °F 6.8 °F 46% 29.37 in 10.0 mi East 3.5 mph - N/A   Mostly Cloudy
10:16 PM 23.0 °F 18.4 °F 3.2 °F 43% 29.37 in 10.0 mi North 3.5 mph - N/A   Overcast
10:36 PM 23.0 °F 15.8 °F 5.0 °F 46% 29.36 in 10.0 mi West 5.8 mph - N/A   Overcast
10:56 PM 24.8 °F 17.9 °F 5.0 °F 43% 29.37 in 10.0 mi SE 5.8 mph - N/A   Overcast
11:16 PM 23.0 °F 17.0 °F 3.2 °F 43% 29.37 in 10.0 mi North 4.6 mph - N/A   Overcast
11:36 PM 24.8 °F - 6.8 °F 46% 29.38 in 10.0 mi Calm Calm - N/A   Overcast
11:56 PM 24.8 °F 20.5 °F 3.2 °F 40% 29.37 in 10.0 mi NW 3.5 mph - N/A   Overcast